Hourly Data Report for October 18, 2017

All times are specified in Local Standard Time (LST). Add 1 hour to adjust for Daylight Saving Time where and when it is observed.

POWELL RIVER
BRITISH COLUMBIA

49°50'04.400" N
124°29'48.500" W
125.00 m
1046392
71720
VOP

Download Data

Hourly Data (October 2017)
Hourly Data Report for October 18, 2017
Temp Definition
°C
Dew Point Temp Definition
°C
Rel Hum Definition
%
Wind Dir Definition
10's deg

Wind Spd Definition
km/h
Visibility Definition
km
Stn Press Definition
kPa
Hmdx Definition


Wind Chill Definition


Weather Definition


TIME
00:00 7.6 5.2 85 LegendMM LegendMM   100.07     LegendNANA
01:00 8.7 5.1 78 LegendMM LegendMM   99.95     LegendNANA
02:00 8.9 4.8 76 LegendMM LegendMM   99.86     LegendNANA
03:00 9.0 4.3 72 LegendMM LegendMM   99.72     LegendNANA
04:00 9.1 3.7 69 LegendMM LegendMM   99.57     LegendNANA
05:00 8.8 2.8 66 LegendMM LegendMM   99.47     LegendNANA
06:00 7.8 3.8 76 LegendMM LegendMM   99.31     LegendNANA
07:00 6.6 5.1 90 LegendMM LegendMM   99.12     LegendNANA
08:00 6.7 5.5 92 LegendMM LegendMM   98.94     LegendNANA
09:00 6.9 5.4 91 LegendMM LegendMM   98.66     LegendNANA
10:00 7.7 6.2 90 LegendMM LegendMM   98.58     LegendNANA
11:00 8.3 7.4 94 LegendMM LegendMM   98.45     LegendNANA
12:00 9.1 8.2 94 LegendMM LegendMM   98.38     LegendNANA
13:00 9.0 8.2 95 LegendMM LegendMM   98.34     LegendNANA
14:00 9.1 8.4 95 LegendMM LegendMM   98.22     LegendNANA
15:00 9.7 8.8 94 LegendMM LegendMM   98.13     LegendNANA
16:00 9.4 8.4 93 LegendMM LegendMM   98.03     LegendNANA
17:00 9.5 8.3 92 LegendMM LegendMM   98.05     LegendNANA
18:00 9.5 8.6 94 LegendMM LegendMM   98.12     LegendNANA
19:00 9.7 8.7 94 LegendMM LegendMM   98.15     LegendNANA
20:00 10.4 8.8 90 LegendMM LegendMM   98.14     LegendNANA
21:00 10.2 8.7 91 LegendMM LegendMM   98.18     LegendNANA
22:00 10.5 8.4 87 LegendMM LegendMM   98.19     LegendNANA
23:00 10.7 8.5 87 LegendMM LegendMM   98.18     LegendNANA

Notes on Data Quality.

Legend

  • E = Estimated
  • M = Missing
  • NA = Not Available
  • ‡ = Partner data that is not subject to review by the National Climate Archives
Date modified: